GLOBALSTAR M096

Last updated on Sat Sep 05 2026 00:03:16 GMT+0000 (Coordinated Universal Time)

1 39075U 13005D 26247.57096972 -.00000084 00000+0 10927-3 0 9993 2 39075 52.0094 317.9647 0000708 112.4609 247.6333 12.62264182627413
UTC large
Height (km)
Speed (km/s)
/
Latitude / Longitude
Inclination (degrees)
Orbital Period (minutes)
Azimuth
Elevation
Range (km)
Doppler Factor

Next 0 passes for location: London (51.5072 / 0.1276)

No passes found over London.
GLOBALSTAR M096